Location: Cactus School
(34.5700°N, 118.0931°W)
Time: 00:41:15
(UTC-08:00)

Tiros 1 - Pass Details

Date: 22 November 2019
Orbit: 630 x 664 km, 48.4° (Epoch: 15 December)

Event Time Altitude Azimuth Distance (km) Brightness Sun altitude
Rises 18:27:26 0° 310° (NW) 2,923 11.1 -21.1°
Reaches altitude 10° 18:29:47 10° 315° (NW) 2,017 10.1 -21.6°
Enters shadow 18:34:15 56° 28° (NNE) 756 7.2 -22.5°
Maximum altitude 18:34:21 56° 34° (NNE) 755 - -22.5°
Drops below altitude 10° 18:38:57 10° 113° (ESE) 2,028 - -23.4°
Sets 18:41:19 0° 117° (ESE) 2,941 - -23.9°
